Regional Weather Roundup
Issued by NWS

Home | Current Version | Previous Version | Graphics & Text | Print | Product List | Glossary On
Versions: 1 2 3 4 5 6 7 8 9 10 11 12 13 14 15 16 17 18 19 20 21 22 23 24 25 26 27 28 29 30 31 32 33 34 35 36 37 38 39 40 41 42 43 44 45 46 47 48 49 50
198
ASUS43 KMPX 240901
RWRMN
WEATHER ROUNDUP FOR MINNESOTA
NATIONAL WEATHER SERVICE TWIN CITIES/CHANHASSEN MN
400 AM CDT FRI MAR 24 2017


NOTE: "FAIR" INDICATES FEW OR NO CLOUDS BELOW 12,000 FEET WITH NO
SIGNIFICANT WEATHER AND/OR OBSTRUCTIONS TO VISIBILITY. N/A MEANS
CURRENT SKY AND/OR WEATHER CONDITIONS ARE NOT AVAILABLE.

MNZ060>063-068>070-241000-
   Twin Cities Metro

CITY           SKY/WX    TMP DP  RH WIND       PRES   REMARKS
TWIN CITIES    CLOUDY    39  36  89 E6        29.83F
ST PAUL        LGT RAIN  39  38  96 E3        29.84F FOG
CRYSTAL        LGT RAIN  38  35  89 N9        29.83F FOG
BLAINE         RAIN      39  39 100 N8        29.84F
LAKEVILLE      CLOUDY    36  36 100 NE6       29.81F FOG
EDEN PRAIRIE   CLOUDY    40  37  89 E7        29.81F FOG
SOUTH ST PAUL  CLOUDY    39  38  94 CALM      29.84F
LAKE ELMO      RAIN      37  36  93 CALM      29.85S
$$
MNZ001>005-007-008-013>017-022>024-027-028-241000-
   Northwest Minnesota

CITY           SKY/WX    TMP DP  RH WIND       PRES   REMARKS
BEMIDJI        CLOUDY    32  32 100 NW5       29.91R FOG     WCI  27
HALLOCK        CLEAR     30  27  86 N10       30.01R WCI  21
ROSEAU         CLEAR     30  27  86 N7        29.97R WCI  23
WARROAD        CLEAR     30  27  86 NW8       29.96R FOG     WCI  23
THIEF RVR FALL CLOUDY    34  31  88 N13       29.96R WCI  25
CROOKSTON      CLOUDY    34  34 100 NE9       29.97S FOG     WCI  26
FOSSTON        CLOUDY    30  30 100 N8        29.94R FOG     WCI  23
DETROIT LAKES  CLOUDY    34  32  93 CALM      29.92S FOG
MOORHEAD       CLOUDY    34  32  93 N3        29.93S FOG
PARK RAPIDS    CLOUDY    34  31  88 CALM      29.91R FOG
MAHNOMEN       CLOUDY    33  32  99 N3        29.92S
$$
MNZ006-009>011-018-025>026-241000-
   North Central Minnesota

CITY           SKY/WX    TMP DP  RH WIND       PRES   REMARKS
BAUDETTE       CLOUDY    34  31  88 NW8       29.91S WCI  27
FLAG ISLAND    CLEAR     32  30  93 NW8       29.94R WCI  25
INTL FALLS     MOCLDY    33  31  92 CALM      29.88F FOG
WASKISH        CLOUDY    34  32  93 W3        29.93R FOG
BIG FORK       CLOUDY    34  32  93 CALM      29.89S FOG
LONGVILLE      CLOUDY    32  32 100 CALM      29.91R FOG
GRAND RAPIDS   CLOUDY    32  31  96 CALM      29.92R FOG
CRANE LAKE     CLOUDY    30  30 100 CALM      29.91R FOG
ORR            CLOUDY    32  30  93 CALM      29.86S FOG
COOK           CLOUDY    32  30  93 CALM      29.89R FOG
WALKER         FOG       32  31  99 CALM      29.91R VSB 1
$$
MNZ012-019>021-037-241000-
   Northeast Minnesota

CITY           SKY/WX    TMP DP  RH WIND       PRES   REMARKS
DULUTH         DRIZZLE   33  32  96 N3        29.87F FOG
ELY            CLOUDY    32  32 100 CALM      29.86F FOG
HIBBING        CLOUDY    31  31 100 CALM      29.89S FOG
EVELETH        CLOUDY    32  31  97 CALM      29.90S FOG
DULUTH HARBOR  MIX PCPN  34  32  93 CALM      29.92F
TWO HARBORS    CLOUDY    36  30  80 CALM      29.88F HAZE
SILVER BAY     CLOUDY    34  34 100 CALM      29.88F FOG
GRAND MARAIS     N/A     33  32  96 CALM      29.90F
G MARAIS ARPRT CLOUDY    28  27  93 CALM      29.86S FOG
$$
MNZ029>031-032-039>041-046>048-054>057-064-241000-
   West Central Minnesota

CITY           SKY/WX    TMP DP  RH WIND       PRES   REMARKS
FERGUS FALLS   CLOUDY    34  34 100 CALM      29.95S FOG
WHEATON        CLOUDY    34  34 100 N5        29.92F FOG     WCI  30
MORRIS         CLOUDY    34  34 100 N8        29.86F FOG     WCI  27
ALEXANDRIA     CLOUDY    34  33  96 N7        29.87F FOG     WCI  28
ELBOW LAKE     CLOUDY    33  33 100 CALM      29.89F FOG
WADENA         CLOUDY    32  32 100 CALM      29.89F FOG
GLENWOOD       CLOUDY    34  34 100 N8        29.86F FOG     WCI  27
APPLETON       CLOUDY    36  34  93 N9        29.86F FOG
BENSON         CLOUDY    37  34  87 NE9       29.87F FOG
ORTONVILLE     FOG       34  32  93 N10       29.87F VSB 3/4 WCI  26
MADISON        CLOUDY    37  37 100 N9        29.87R FOG
WILLMAR        DRIZZLE   36  36 100 N12       29.84F
$$
MNZ033>034-036-042>043-049>051-058-059-241000-
   Central Minnesota

CITY           SKY/WX    TMP DP  RH WIND       PRES   REMARKS
ST CLOUD       CLOUDY    35  35 100 N5        29.87R FOG     WCI  31
SAUK CENTRE    CLOUDY    33  33  99 N7        29.87F FOG     WCI  27
PAYNESVILLE    DRIZZLE   34  35 100 N8        29.85F WCI  28
AITKIN         CLOUDY    34  30  86 CALM      29.88F FOG
PINE RIVER     CLOUDY    32  32 100 CALM      29.94S FOG
BRAINERD       CLOUDY    33  33 100 N5        29.89F FOG     WCI  29
STAPLES        DRIZZLE   32  32 100 CALM      29.90F
LONG PRAIRIE   CLOUDY    32  32 100 NW7       29.88F FOG     WCI  26
LITTLE FALLS   CLOUDY    32  32 100 N3        29.89S FOG
LITCHFIELD     CLOUDY    37  36  93 N8        29.83F FOG
BUFFALO        DRIZZLE   36  35  96 N8        29.85F
MAPLE LAKE     DRIZZLE   37  37 100 N7        29.85F
HUTCHINSON     CLOUDY    37  37 100 N6        29.83F FOG
$$
MNZ037-044-045-052-053-241000-
   East Central Minnesota

CITY           SKY/WX    TMP DP  RH WIND       PRES   REMARKS
PRINCETON      CLOUDY    36  34  93 NE3       29.88S FOG
MORA           CLOUDY    34  32  93 NE3       29.89S FOG
CAMBRIDGE      CLOUDY    36  32  87 NE3       29.86R FOG
RUSH CITY      CLOUDY    33  33  96 NE3       29.89R FOG
MOOSE LAKE     CLOUDY    32  32 100 N5        29.87F FOG     WCI  27
HINCKLEY       CLOUDY    34  34 100 NE3       29.87F FOG
CLOQUET        MIX PCPN  32  30  93 N5        29.88S WCI  27
MCGREGOR       CLOUDY    32  32 100 CALM      29.90S
$$
MNZ071>073-080-081-089-090-097-098-241000-
   Southwest Minnesota

CITY           SKY/WX    TMP DP  RH WIND       PRES   REMARKS
MONTEVIDEO     CLOUDY    36  36 100 NE13      29.86S FOG
GRANITE FALLS  CLOUDY    37  36  97 N9        29.85R FOG
CANBY          FOG       35  35 100 CALM      29.87R VSB 3/4
MARSHALL       FOG       35  35 100 N9        29.84R VSB 1   WCI  28
REDWOOD FALLS  CLOUDY    38  36  92 N7        29.82R FOG
OLIVIA         CLOUDY    36  34  93 N9        29.82R FOG
PIPESTONE      CLOUDY    37  34  87 NE8       29.81R FOG
WINDOM         CLOUDY    37  37 100 NW6       29.81R FOG
WORTHINGTON    MIX PCPN  37  36  96 N10       29.80R FOG
JACKSON        LGT RAIN  37  37 100 NW21      29.79R
TRACY          FOG       37  37  99 N7        29.83R VSB 1/2
SLAYTON        CLOUDY    35  35  99 N5        29.82R FOG     WCI  31
$$
MNZ065>067-074>077-082>085-091>093-241000-
   South Central Minnesota

CITY           SKY/WX    TMP DP  RH WIND       PRES   REMARKS
MANKATO        LGT RAIN  39  37  92 E9        29.78F FOG
NEW ULM        CLOUDY    37  37 100 NE5       29.80R FOG
ST JAMES       CLOUDY    37  37 100 NE6       29.76F FOG
FAIRMONT       LGT RAIN  40  39  97 SE5       29.76S FOG
GLENCOE        CLOUDY    38  38 100 NE3       29.80F FOG
FARIBAULT      DRIZZLE   37  37 100 NE6       29.81F
OWATONNA       CLOUDY    37  36  93 E7        29.79F FOG
WASECA         LGT RAIN  37  36  93 NE9       29.79F
ALBERT LEA     DRIZZLE   39  39 100 E6        29.78F
$$
MNZ078>079-086>088-094>096-241000-
   Southeast Minnesota

CITY           SKY/WX    TMP DP  RH WIND       PRES   REMARKS
ROCHESTER      HVY RAIN  38  38 100 NE6       29.82S FOG
RED WING       LGT RAIN  39  36  87 E3        29.84S
STANTON        DRIZZLE   39  36  90 E8        29.81F
DODGE CENTER   RAIN      37  36  93 E9        29.79F
WINONA         LGT RAIN  37  37 100 CALM      29.87S
AUSTIN         LGT RAIN  41  39  93 SE6       29.79F
PRESTON        CLOUDY    39  38  93 NE3       29.81F FOG
$$
ABBREVIATIONS USED IN REMARKS
   TC - TEMPERATURES IN CELSIUS
  WCI - WIND CHILL INDEX
   HX - HEAT INDEX
  VSB - VISIBILITY
$$




USA.gov is the U.S. government's official web portal to all federal, state and local government web resources and services.